Theta_e
315 313 310 309 309 306 301 299 299 297 294 292 293 294 292 290 287 284 283 284 285 286 285 284 285 285 285 285 286 285 285 287 286 284 283 283 282 289 290 291 291 291 292 294 294 294 295 294 294 294 294 294 295 295 295 295 295 295 295 296 296 297 297 298 298 298 298 298 297 298 298 298 298 299
313 311 308 306 305 302 297 297 297 295 293 291 291 291 290 289 289 287 285 285 285 285 285 284 284 284 284 286 286 286 286 289 285 283 283 282 284 288 288 289 289 290 291 292 292 292 293 293 293 293 293 293 294 294 294 294 294 294 295 295 295 296 296 297 297 297 297 297 297 297 297 298 298 298
310 307 306 302 301 296 296 294 292 291 291 290 289 288 288 287 287 288 286 283 284 286 286 283 284 285 284 285 285 286 285 287 285 282 282 282 286 285 285 287 287 288 290 291 291 291 292 292 293 293 292 293 293 293 293 293 293 293 293 294 294 295 295 296 296 296 296 295 296 296 296 296 296 296
308 306 304 300 300 294 293 292 291 290 289 289 289 288 287 286 286 287 285 284 284 283 283 283 284 285 285 285 285 284 284 286 285 281 281 283 284 281 280 284 285 287 288 289 289 289 290 290 291 291 291 292 292 292 292 292 291 291 292 292 293 294 294 294 295 295 295 295 295 295 296 295 295 296
304 304 304 300 298 293 293 292 290 289 288 287 287 287 286 286 284 286 284 284 282 283 283 283 284 284 284 283 284 283 283 282 282 282 281 282 281 280 279 279 283 285 287 288 287 288 288 288 289 290 290 290 290 290 290 290 289 290 290 291 292 293 293 294 295 295 294 295 295 295 294 294 295 295
300 300 299 295 292 292 293 290 290 289 287 287 286 285 286 285 285 283 282 282 283 282 283 282 283 283 283 281 283 283 282 281 282 281 280 280 280 280 279 278 279 284 286 287 286 286 287 287 287 288 288 288 288 288 289 288 288 289 289 290 290 291 292 293 293 294 293 294 294 294 294 294 295 295
299 298 297 295 292 291 291 290 289 288 287 286 286 285 284 285 284 283 283 283 282 282 282 283 282 282 283 282 282 282 283 282 281 281 280 280 280 280 279 278 279 282 286 285 285 285 285 286 286 287 287 287 287 287 287 287 287 288 288 289 290 290 291 291 292 292 292 292 293 293 293 293 293 294
298 298 295 293 291 290 290 289 288 287 286 285 285 284 283 284 284 283 283 282 282 282 282 282 282 283 282 282 282 282 282 281 281 280 280 280 279 278 279 279 278 281 284 283 283 283 284 284 285 285 285 286 286 286 286 286 286 287 287 288 289 289 290 290 290 291 290 291 292 292 292 292 293 293
299 298 298 294 291 290 290 288 288 287 286 285 284 284 283 283 284 284 283 282 283 283 282 282 282 282 282 281 281 281 281 281 280 280 279 279 279 278 278 279 280 281 281 281 281 281 282 282 283 284 284 285 285 284 285 285 285 286 286 287 288 289 289 289 290 290 290 290 290 290 291 292 291 291
299 299 298 294 292 291 292 289 288 287 285 284 284 283 283 283 283 283 282 282 282 282 281 282 281 281 281 280 280 280 280 280 279 279 279 279 278 278 277 278 279 279 277 277 278 279 279 280 281 283 282 283 283 283 283 284 284 285 286 287 288 288 288 289 289 289 289 288 289 289 290 290 290 290
296 296 295 292 291 290 290 289 287 286 285 285 284 284 283 283 283 282 282 281 281 281 281 281 281 281 281 280 279 280 280 279 279 278 278 277 278 276 276 275 277 276 277 278 279 278 278 279 279 280 280 281 281 281 282 283 284 284 286 287 287 287 288 288 288 288 288 288 288 288 288 288 289 289
292 292 291 290 290 291 290 289 288 286 285 285 284 284 283 283 282 282 282 281 281 280 280 280 280 280 279 279 279 279 279 279 278 278 277 276 276 276 276 276 275 277 276 275 275 276 276 276 277 278 278 279 280 279 279 280 283 284 286 286 287 287 287 287 288 288 287 287 287 287 288 288 288 288
290 290 289 289 289 289 287 287 287 287 287 285 283 283 283 283 282 282 282 281 281 280 280 280 280 280 279 279 279 278 278 278 277 277 276 275 275 275 274 275 276 276 275 274 274 273 273 272 273 274 273 274 276 276 278 279 282 284 285 286 286 286 286 287 287 287 286 286 286 286 287 287 287 286
288 288 288 288 286 286 285 286 287 288 287 287 286 284 284 283 283 282 282 281 281 281 280 280 280 279 279 280 279 279 279 278 277 276 275 274 274 273 272 272 274 275 274 273 272 272 272 270 271 271 272 273 275 274 274 278 281 283 284 285 285 286 286 286 286 286 285 285 286 286 286 287 287 286
288 287 286 286 286 285 285 285 287 288 288 287 287 287 286 286 284 283 282 281 281 280 280 281 280 280 280 280 280 279 278 277 277 276 275 274 273 271 269 266 269 274 273 272 270 271 272 271 269 270 270 272 273 274 275 281 282 283 283 284 285 285 285 286 286 285 285 285 285 286 286 286 286 285
287 286 285 285 285 285 284 284 285 286 287 287 287 287 287 287 287 287 284 282 281 281 280 280 280 280 280 280 279 278 277 277 276 275 274 273 272 271 269 268 266 270 274 271 269 270 270 270 269 269 270 272 272 274 277 281 282 283 283 283 284 284 284 285 285 284 284 284 285 285 285 286 286 285
287 286 285 285 284 284 284 284 285 285 285 286 287 287 286 287 287 287 287 287 283 283 281 280 280 281 280 278 278 279 278 278 275 274 273 273 273 273 271 270 268 270 272 270 267 267 269 269 269 268 270 270 271 272 276 280 281 282 282 282 283 283 284 284 284 284 284 284 284 285 285 285 285 284
286 286 285 284 284 284 284 284 285 285 284 284 284 284 284 283 285 286 286 286 285 284 282 281 281 281 280 279 279 279 280 277 275 273 273 274 273 272 271 269 270 270 272 270 269 265 265 267 267 268 269 269 270 268 275 278 280 281 281 281 282 283 283 283 283 283 283 283 284 284 284 284 284 283
286 286 286 285 284 283 284 284 284 284 283 283 283 283 282 282 283 283 283 282 282 282 282 281 280 280 280 279 279 279 279 278 276 276 274 275 274 272 270 269 268 268 270 269 268 263 263 263 266 267 268 269 269 267 272 276 279 280 280 280 281 282 282 282 282 282 282 283 283 284 284 284 284 282
285 284 283 283 283 283 283 284 286 285 283 283 281 281 280 280 280 280 282 283 283 282 281 280 279 279 279 280 279 279 278 277 277 276 272 270 266 267 265 267 265 263 266 268 267 259 259 262 265 266 268 267 267 268 263 274 277 278 279 279 280 281 281 281 281 281 282 282 282 283 283 283 283 281
284 283 283 282 282 282 282 285 287 287 285 281 280 279 279 279 279 279 281 283 284 283 283 283 283 283 283 283 282 282 281 279 277 273 271 269 263 264 264 265 263 265 264 269 270 264 262 262 264 266 268 266 266 264 264 265 274 277 277 278 279 280 280 280 280 280 281 281 282 282 283 283 282 280
283 284 283 283 281 281 281 286 287 287 284 281 280 279 279 278 277 278 279 281 281 283 283 283 283 283 283 283 283 283 282 282 279 273 271 268 266 265 265 266 262 263 262 266 271 264 261 262 265 265 266 264 260 262 261 267 269 273 273 276 277 278 279 279 279 279 280 280 281 281 282 282 281 277
283 282 283 283 283 282 282 287 287 287 283 281 280 280 279 278 277 277 279 279 279 278 278 278 278 278 279 278 278 279 282 283 280 275 273 267 268 267 264 263 261 263 261 267 269 264 261 263 265 266 264 260 262 262 263 265 264 266 266 268 270 276 277 277 277 278 278 279 280 280 281 282 280 276
281 281 281 283 284 284 285 287 288 287 284 281 280 280 278 277 277 278 278 279 278 277 276 275 275 273 273 274 274 274 275 277 276 274 271 269 268 267 265 264 264 265 261 266 270 263 261 262 261 264 264 263 262 262 263 264 263 264 264 268 268 273 274 274 273 276 276 277 279 279 280 281 280 276
280 280 281 281 284 285 285 287 288 287 285 283 280 279 278 279 280 279 278 278 278 276 274 273 272 271 271 272 272 273 272 272 272 272 273 269 269 268 265 264 264 265 265 265 272 264 260 259 259 262 262 264 265 266 267 267 262 261 265 267 267 270 269 268 269 268 272 274 276 278 279 280 280 278
280 280 281 280 283 285 286 287 287 287 286 284 279 279 282 283 283 278 278 278 276 274 273 271 270 270 270 270 270 271 271 270 270 270 270 270 268 269 268 266 264 262 265 266 274 263 261 260 263 264 265 264 265 269 267 266 260 257 263 265 268 269 267 266 267 267 267 267 267 273 276 278 279 279
280 280 280 281 283 285 286 287 288 288 287 284 279 282 283 283 282 279 277 276 275 273 272 270 270 270 270 270 270 270 270 270 269 268 269 268 268 268 266 267 267 268 269 267 268 265 263 260 264 265 264 266 266 267 267 262 260 262 266 264 267 267 265 264 265 266 266 266 267 274 274 276 277 278
280 280 280 280 283 285 286 287 288 287 286 282 283 284 284 283 280 276 275 275 274 273 271 271 270 270 270 270 270 270 270 269 268 268 267 267 267 268 267 267 267 267 267 267 267 266 266 264 264 266 266 265 265 265 263 265 263 262 264 267 267 265 265 265 266 266 266 266 266 267 267 268 270 273
280 281 281 282 283 284 285 286 287 287 286 284 284 284 283 280 275 275 274 274 273 272 271 271 271 271 271 271 271 270 270 269 267 267 266 266 266 266 267 267 267 267 267 267 267 266 266 265 265 266 267 267 266 264 263 263 261 261 266 266 265 266 267 265 265 264 265 266 265 266 266 266 268 272
282 282 282 282 283 284 285 284 284 283 284 284 283 283 282 276 275 275 274 273 272 272 272 271 271 272 271 269 268 268 268 268 267 267 267 266 266 266 266 267 267 267 267 267 267 267 266 266 266 266 265 264 263 263 262 260 261 263 265 264 266 268 265 265 266 264 264 264 264 264 265 266 268 270
281 282 281 281 282 283 284 284 283 283 283 283 282 281 280 277 276 275 274 274 273 273 272 272 272 271 270 269 268 268 268 268 268 268 268 267 267 267 266 266 266 267 268 266 266 266 266 267 267 266 261 260 261 263 263 262 263 263 264 265 266 264 266 267 265 263 262 263 263 264 264 266 267 270
280 280 281 281 279 279 280 281 278 279 281 281 281 280 279 277 275 275 275 275 273 273 273 272 271 269 269 268 268 268 268 268 268 268 267 267 266 267 265 265 266 266 266 267 267 266 267 266 266 265 265 264 264 263 261 262 263 263 263 265 266 266 265 264 262 263 262 261 262 262 263 263 266 269
278 277 276 275 276 277 278 279 279 279 280 280 280 279 277 276 275 274 273 272 272 271 271 270 270 269 269 268 269 268 268 268 267 267 266 268 266 266 266 265 266 265 266 266 266 267 266 265 265 265 264 265 266 265 263 262 262 263 263 263 262 261 263 262 261 261 262 262 259 259 261 263 265 269
275 275 275 275 275 276 277 278 278 278 278 278 277 277 277 274 274 273 273 273 272 271 271 271 270 269 269 268 268 268 268 268 268 267 267 266 267 265 265 265 266 267 267 266 266 266 265 263 263 263 263 264 264 264 264 263 263 261 263 261 262 260 261 260 260 260 261 261 260 260 261 264 265 267
274 274 273 273 273 274 276 276 277 277 277 277 277 276 275 274 273 273 273 273 272 271 270 270 270 270 269 269 268 267 268 267 268 267 268 267 266 266 266 266 266 266 266 265 265 265 263 263 262 262 261 261 262 262 267 266 261 264 262 263 262 259 258 260 260 261 260 258 260 260 260 260 262 265
272 273 273 273 273 273 274 275 275 276 276 276 276 276 274 273 273 273 273 273 272 271 270 270 269 269 269 269 269 268 268 268 267 267 266 267 266 266 266 265 266 266 266 265 265 264 262 261 261 261 260 261 260 260 261 271 269 266 265 262 258 256 255 258 258 258 260 259 260 260 260 260 261 265
273 272 273 273 273 274 274 274 275 275 275 276 276 276 275 275 274 274 274 273 272 271 271 270 269 269 269 269 269 268 268 268 267 267 266 267 266 266 265 265 265 265 265 265 265 263 262 261 260 261 260 260 259 261 262 263 268 272 268 265 261 257 259 257 257 259 260 259 259 259 259 258 262 268
273 272 272 271 272 273 274 274 275 275 275 276 276 275 275 275 274 273 272 271 271 270 270 270 269 269 269 269 268 268 268 268 267 267 267 266 265 265 264 264 264 265 265 264 264 263 262 262 261 261 261 261 261 260 258 260 262 267 270 266 262 261 261 261 260 258 261 260 259 260 258 260 265 268
273 272 272 272 273 273 273 274 275 275 276 275 275 274 274 274 273 271 271 271 271 270 270 270 269 269 269 269 268 268 267 267 266 266 266 266 266 265 265 264 264 265 264 263 264 263 262 261 262 262 262 261 261 260 259 258 260 263 267 271 267 263 263 262 262 262 261 261 261 258 258 261 265 271
274 272 272 272 272 273 273 273 274 275 275 275 275 275 274 273 272 271 270 270 270 270 270 269 269 269 269 268 268 268 268 267 267 267 266 266 265 265 264 264 264 264 264 264 263 263 262 262 262 263 263 264 263 262 261 262 263 263 263 266 270 268 265 263 263 263 263 264 261 261 258 258 259 260
276 274 272 272 272 272 273 273 273 272 273 274 274 274 274 273 272 271 271 270 270 270 269 269 269 269 268 268 268 267 266 267 267 266 266 265 265 265 265 265 263 264 263 263 264 264 264 264 264 267 264 260 261 261 261 260 261 259 258 260 267 270 272 270 266 266 264 262 260 259 257 256 256 254
278 276 274 272 273 272 271 272 271 271 271 272 272 271 270 270 270 272 270 270 269 269 269 269 268 268 268 268 267 267 266 266 265 265 265 264 264 265 265 264 262 263 263 263 264 265 264 263 263 263 261 260 260 259 259 260 260 260 258 256 259 266 269 272 273 272 268 264 260 257 256 257 256 255
274 275 275 274 272 272 271 272 271 271 271 270 270 270 269 269 268 269 269 268 268 268 268 268 268 268 267 267 267 266 265 265 265 264 264 264 264 263 263 263 263 263 264 264 264 264 263 262 261 260 258 259 260 261 259 259 259 259 258 257 259 259 261 268 270 272 272 273 272 268 264 257 253 255
269 270 270 270 271 272 271 271 271 271 271 271 271 269 269 269 268 269 269 268 268 267 267 267 266 266 265 265 265 265 265 264 264 264 263 263 263 263 263 263 263 262 263 263 262 262 262 261 261 260 257 257 257 258 259 259 260 260 258 257 258 257 258 259 262 268 270 271 273 274 273 272 271 271
269 269 269 268 269 269 270 270 270 270 270 270 268 268 268 268 268 268 267 267 267 266 266 265 265 265 265 264 264 263 264 265 264 263 263 262 262 263 262 262 262 262 262 262 262 261 261 261 259 258 256 256 256 257 259 260 260 260 260 259 259 258 258 259 261 261 262 264 270 273 274 274 273 274
Wind_Speed
11 9 11 10 8 8 7 7 6 7 6 7 8 8 11 10 10 8 7 8 7 5 4 6 5 4 3 3 3 3 3 4 5 4 5 4 3 7 12 13 15 14 14 14 14 15 16 16 16 16 17 17 18 19 19 20 21 21 22 23 24 25 25 27 28 29 28 30 31 32 33 32 32 33
9 9 8 7 7 6 7 8 7 7 8 7 8 8 7 8 12 9 10 9 6 4 3 1 4 3 4 3 3 3 3 5 6 5 5 4 3 10 11 13 14 13 13 13 13 15 16 15 15 16 16 17 18 18 18 19 20 21 22 23 23 24 25 25 27 29 30 31 31 31 32 32 33 33
9 9 9 7 7 6 7 6 6 5 6 7 7 7 5 6 5 10 7 5 3 3 8 2 1 6 4 4 3 2 3 4 6 6 5 4 7 8 8 12 13 12 12 13 13 16 16 15 15 16 16 17 17 17 18 19 20 20 21 22 23 23 24 25 26 27 29 30 31 32 31 32 32 33
9 9 10 10 9 7 6 6 5 6 5 6 6 7 6 5 4 7 7 6 5 1 3 4 4 5 5 4 4 3 3 5 8 5 5 4 6 5 4 8 12 11 12 12 13 16 15 14 15 15 16 17 17 17 18 19 19 20 20 21 22 23 23 24 26 28 28 29 31 32 31 30 31 33
7 8 10 10 9 9 8 7 5 5 5 5 5 5 6 6 4 7 5 6 4 2 2 3 3 3 5 2 2 4 4 4 4 5 4 4 4 4 4 4 9 11 11 10 13 15 14 14 14 15 16 16 16 17 18 18 19 19 20 21 22 23 24 24 25 26 27 28 29 31 32 32 33 33
6 6 6 4 3 5 9 8 7 7 6 6 6 5 6 6 6 3 5 3 5 5 1 4 2 2 1 2 2 3 4 3 3 5 4 3 3 3 4 5 5 9 9 9 13 14 13 14 14 15 15 16 16 17 17 17 18 18 20 21 22 22 23 25 25 26 27 28 29 30 31 32 32 32
8 7 7 7 7 3 6 7 7 6 6 5 7 6 4 6 5 2 4 5 4 8 4 3 3 2 1 2 1 3 4 4 3 3 3 3 3 3 2 4 3 7 8 9 13 13 13 13 14 14 15 16 16 16 17 17 17 18 19 21 22 22 23 23 25 27 27 28 29 29 30 31 33 33
10 11 10 9 10 9 8 6 7 6 6 7 6 5 4 5 5 3 4 3 5 3 7 2 4 2 3 2 3 4 4 4 3 2 0 2 3 3 3 3 3 5 6 9 12 13 13 13 14 15 16 15 16 16 16 17 17 18 20 21 22 22 22 23 24 25 25 27 29 29 30 30 30 31
13 12 13 11 11 10 9 6 6 5 7 6 7 6 5 5 5 4 5 5 4 7 7 4 1 2 3 2 3 2 3 2 3 2 3 3 2 3 3 3 3 4 6 9 11 12 12 13 13 15 15 15 16 16 16 17 17 19 20 21 21 22 22 23 23 24 24 25 26 27 29 30 31 32
12 13 13 12 12 13 14 13 11 9 10 7 7 7 6 6 6 6 5 5 6 7 6 6 4 1 3 2 3 2 3 1 1 2 2 2 1 3 5 4 3 1 2 3 4 6 9 10 12 14 15 15 16 16 16 17 17 19 20 21 21 21 22 22 22 23 24 24 26 27 27 29 30 31
8 9 9 10 11 11 9 10 11 11 9 9 9 9 8 7 7 7 6 6 7 6 6 3 3 4 1 3 3 2 3 4 2 0 2 2 1 2 2 2 2 1 3 4 7 7 7 8 7 11 13 14 15 15 16 15 17 18 20 19 20 21 21 22 22 22 23 24 25 25 26 28 29 30
6 5 6 9 11 11 11 11 10 11 11 8 9 7 7 8 8 8 7 6 6 6 5 3 4 2 3 2 3 2 2 2 0 1 1 1 2 4 3 2 1 1 3 5 6 5 5 5 7 9 9 12 14 15 14 15 17 19 19 19 20 20 21 21 21 21 22 23 24 25 26 27 28 29
6 6 5 5 6 7 8 10 10 10 9 10 10 7 8 8 8 7 7 6 6 5 6 4 3 4 3 4 4 3 4 5 4 2 2 1 1 3 4 2 2 1 1 3 4 4 3 3 5 6 5 6 10 10 13 11 15 18 19 19 19 20 20 21 21 21 22 23 24 24 25 26 28 28
6 7 7 7 10 11 11 12 12 11 10 8 6 12 11 10 9 9 8 7 6 7 7 6 7 5 6 6 7 6 4 3 3 3 2 1 2 2 4 2 1 1 2 3 5 5 2 2 3 3 5 5 6 6 6 7 12 16 18 18 18 19 19 20 20 20 21 22 23 24 25 25 26 27
8 6 5 5 9 10 10 11 14 12 11 10 9 10 10 11 15 12 9 7 8 8 7 6 5 6 7 6 6 6 5 2 4 3 2 2 1 0 2 1 4 1 2 1 2 6 2 1 4 4 4 4 6 6 6 14 16 16 16 17 17 18 19 18 19 20 21 21 22 24 24 24 25 26
8 8 7 5 5 7 9 8 10 11 13 12 12 13 12 10 7 7 10 12 8 7 8 7 8 7 7 5 7 5 6 5 4 3 3 4 3 2 2 2 3 2 3 2 3 6 2 1 3 4 4 5 4 6 10 15 16 16 16 16 16 17 18 18 18 19 20 21 22 23 24 24 25 26
7 6 7 6 6 6 11 10 9 10 10 11 13 14 12 11 10 8 6 3 7 10 8 8 7 9 7 6 7 7 7 6 7 4 4 3 4 3 3 4 3 3 1 1 2 4 4 2 3 5 4 3 3 5 9 15 16 16 16 16 16 17 17 18 18 18 20 20 21 22 23 24 24 25
8 9 9 9 8 7 9 8 10 10 10 10 9 9 8 7 8 8 8 9 8 8 8 9 9 7 7 7 7 8 7 8 7 7 6 5 4 4 4 2 3 3 1 1 1 4 3 2 3 5 5 3 4 3 7 14 15 16 16 16 16 16 17 17 17 18 20 20 20 21 23 23 24 24
9 10 10 9 9 9 10 9 11 11 11 10 9 8 7 7 6 6 6 6 5 6 5 6 4 6 5 6 8 6 6 8 4 5 4 5 3 1 2 3 2 3 2 2 1 3 4 2 4 5 5 4 5 2 5 11 15 15 16 16 16 16 17 17 17 18 19 19 20 21 22 23 22 22
6 4 5 6 7 7 7 10 14 11 10 10 11 10 8 6 5 4 4 6 5 5 5 5 6 6 7 9 8 7 6 5 4 5 4 5 3 1 2 5 1 2 2 2 1 1 3 1 1 5 6 4 4 3 1 7 14 15 16 16 16 16 17 18 17 18 18 19 19 20 21 22 22 20
5 5 5 5 5 6 5 8 13 12 10 9 11 10 9 7 6 5 4 8 10 10 11 11 12 12 13 13 13 13 13 9 7 6 5 5 5 3 3 3 2 5 1 2 2 3 3 3 1 5 6 4 3 2 1 3 8 15 15 16 16 16 17 17 17 17 18 18 19 19 20 21 20 20
4 3 6 5 5 6 5 9 12 13 11 10 10 11 11 10 8 6 5 5 6 11 12 12 12 12 12 13 13 13 13 14 11 8 8 6 7 7 6 6 5 3 2 4 2 1 4 1 1 3 6 5 2 1 2 2 5 10 10 14 16 15 16 17 17 17 17 18 18 18 20 21 18 10
3 3 4 6 5 5 6 13 14 14 10 8 10 11 10 10 10 8 9 9 9 7 7 6 7 5 5 3 4 6 14 15 13 8 6 7 7 7 7 5 1 2 2 4 3 1 2 1 2 0 5 4 4 1 2 3 3 5 6 7 8 13 15 16 16 16 16 17 18 18 19 20 17 8
4 5 5 7 10 12 13 15 16 15 13 8 8 8 9 10 11 8 9 8 8 9 8 7 6 6 4 4 4 3 2 3 7 6 5 7 7 6 6 6 5 3 3 5 4 2 2 2 2 1 1 1 4 3 2 4 1 3 4 6 6 9 11 11 11 15 16 16 17 17 19 19 18 8
6 6 6 6 10 14 15 17 17 16 15 10 8 9 9 8 6 12 9 10 10 8 8 7 6 6 5 5 4 4 4 4 4 4 5 7 7 7 6 6 6 6 4 4 6 5 2 1 1 1 2 1 3 4 4 3 3 1 4 5 5 6 4 6 5 6 9 14 16 17 17 19 20 15
7 7 6 7 11 16 16 19 19 20 19 16 8 8 8 10 17 12 8 8 8 7 7 6 7 7 6 5 5 5 5 5 5 5 5 6 6 6 6 7 6 4 5 4 6 4 2 2 5 2 2 2 4 4 6 5 3 3 2 4 5 5 3 4 6 6 5 5 6 10 13 17 16 19
7 6 8 7 13 18 18 19 20 20 20 13 8 13 13 14 16 12 8 8 8 7 7 9 9 6 6 6 7 7 7 6 6 5 5 5 6 5 5 4 5 6 4 3 1 4 5 3 3 5 4 3 4 4 5 4 5 2 5 3 5 5 3 2 4 5 5 5 6 12 12 13 14 16
8 8 9 9 15 17 17 18 18 19 16 9 14 15 15 16 13 8 8 8 8 7 7 8 8 8 7 6 6 8 7 7 6 6 5 4 4 5 4 5 5 5 5 5 4 4 5 5 4 4 5 4 4 5 6 4 5 3 5 6 5 5 4 3 5 5 5 4 5 6 5 7 7 7
7 7 10 12 15 14 14 15 16 13 14 14 15 15 15 12 7 7 8 8 8 8 9 10 8 7 8 8 5 4 5 4 4 3 3 2 3 3 2 3 4 5 4 5 6 6 6 6 6 5 4 5 5 4 3 6 3 5 4 6 6 3 6 4 3 4 5 4 5 5 4 5 6 7
10 12 13 13 12 11 9 8 7 6 8 14 15 15 13 7 7 7 7 7 9 10 9 8 9 8 5 4 3 4 5 6 7 6 5 5 4 4 4 2 4 5 6 6 5 5 5 6 6 5 5 5 5 6 5 4 7 5 4 3 5 7 3 2 5 4 3 5 5 5 6 4 5 4
6 8 7 6 8 6 10 10 7 6 8 10 9 8 8 7 7 7 8 9 9 8 7 7 5 3 4 4 5 5 6 6 5 6 5 5 5 4 3 3 5 3 4 4 5 5 6 6 6 6 4 3 4 6 5 4 7 6 7 4 3 4 5 5 5 5 3 4 4 4 4 6 6 5
5 6 6 7 6 5 6 6 4 5 5 6 7 7 6 6 5 5 4 2 3 3 3 3 4 4 5 6 5 5 6 6 5 5 5 6 5 4 4 2 5 3 3 3 4 4 5 5 5 5 6 5 5 4 2 5 7 6 7 5 5 5 4 5 5 5 3 3 4 4 5 3 3 5
5 6 6 5 6 6 7 6 6 5 5 5 6 6 5 5 5 6 6 7 6 5 5 6 6 5 5 4 4 5 5 5 5 4 5 5 6 4 5 7 5 3 4 4 3 4 4 3 2 4 5 4 5 5 4 6 7 6 7 6 3 4 4 4 3 4 4 4 3 3 4 4 3 4
6 6 7 6 7 7 6 7 6 6 7 6 6 6 6 6 6 7 6 6 4 4 5 4 6 5 5 4 4 4 6 4 4 5 7 6 5 7 7 6 7 5 4 5 4 4 3 2 0 2 3 4 5 8 8 7 8 4 5 3 4 4 4 3 3 1 1 1 2 4 4 4 5 4
6 6 6 6 6 6 6 7 7 7 7 7 7 6 6 6 7 6 6 7 5 6 6 5 6 5 5 6 6 7 6 7 5 5 6 5 6 7 7 7 6 5 5 5 5 4 4 3 1 2 2 2 3 4 11 11 5 5 2 4 3 3 3 2 2 4 3 2 0 1 3 2 4 4
6 7 7 7 7 7 7 7 7 7 7 7 8 7 7 8 8 8 9 7 6 6 6 6 7 8 6 6 7 6 7 7 8 7 7 8 8 7 6 7 6 5 4 5 5 3 4 4 2 1 3 4 3 5 3 11 12 4 4 2 1 1 2 3 4 2 3 2 0 1 2 1 3 5
6 6 7 7 7 7 8 7 7 7 8 8 8 8 9 9 8 8 5 5 6 6 7 6 7 7 7 7 7 7 8 8 8 8 8 8 7 6 7 7 7 6 5 6 4 4 4 5 3 4 2 4 4 7 6 3 6 10 6 4 1 0 1 2 3 5 3 0 3 2 2 2 2 3
7 6 6 6 6 6 6 7 7 8 8 8 8 8 8 6 4 5 5 6 7 6 7 8 7 7 7 7 6 7 7 7 7 7 8 7 8 8 9 8 7 6 6 5 5 5 5 5 5 5 5 6 6 6 4 3 2 1 8 7 2 2 0 1 3 3 5 1 3 2 1 1 4 1
6 6 7 7 7 7 7 7 7 8 7 7 7 7 6 5 5 5 6 7 7 7 7 7 8 8 8 8 8 8 8 7 8 9 8 8 9 9 8 7 7 5 5 5 4 5 5 6 6 6 7 6 8 4 4 2 4 4 5 7 2 2 3 3 4 4 3 3 3 2 2 4 5 10
5 4 5 5 5 5 6 5 5 5 6 6 6 6 6 6 6 7 7 7 7 7 7 8 8 7 7 7 7 7 7 9 9 8 8 8 8 8 8 7 7 6 5 6 5 6 6 8 7 8 7 7 4 2 3 3 3 4 5 10 11 7 5 4 4 2 3 3 1 1 3 4 2 3
5 5 5 5 5 5 6 6 6 6 6 6 6 5 6 6 6 7 7 7 7 7 7 7 7 8 7 7 7 8 8 7 7 8 7 7 8 8 8 6 6 6 7 7 6 6 9 7 6 5 5 2 1 2 1 1 6 2 2 5 7 10 8 10 7 5 4 3 3 1 1 1 1 3
5 5 5 5 5 6 5 6 6 6 6 6 6 6 5 6 6 6 7 6 7 7 7 7 7 7 7 7 7 7 8 8 8 8 8 7 8 7 8 7 7 6 7 9 8 7 1 4 5 4 5 5 2 3 6 5 6 4 2 3 6 8 9 7 9 11 7 6 4 1 0 1 0 1
4 5 5 5 5 6 5 5 5 6 6 6 6 6 6 6 6 6 6 7 7 7 7 7 6 7 7 7 7 7 8 8 8 8 8 8 8 8 8 8 8 7 7 6 1 3 4 4 5 5 4 5 4 4 7 6 4 3 3 3 5 6 6 7 7 8 9 10 10 7 6 4 3 1
4 5 4 5 5 5 5 6 6 6 6 6 6 6 6 6 7 7 7 7 7 8 7 7 7 7 7 7 6 6 7 8 7 8 9 8 8 8 7 6 6 6 6 5 4 4 4 4 5 5 5 4 3 4 7 4 5 4 2 3 1 1 4 5 6 5 6 9 12 13 14 11 8 6
3 4 4 4 5 4 5 5 6 6 6 6 5 6 6 6 6 6 6 6 7 7 7 7 7 7 7 6 7 8 8 7 7 7 6 6 7 7 7 6 6 6 7 6 5 4 4 5 3 3 3 3 3 4 5 4 5 4 3 2 4 3 3 1 1 4 4 3 7 11 15 13 13 11
Wind_Direction
196 195 191 197 200 202 191 192 193 193 188 184 180 188 178 176 158 172 197 215 190 211 191 157 217 182 187 188 211 171 153 124 98 79 62 51 17 24 23 16 16 9 5 359 356 355 355 354 353 352 350 347 346 346 345 346 346 346 348 348 346 344 341 338 340 341 340 338 339 341 340 340 339 339
189 192 186 191 201 189 183 196 190 183 186 180 186 196 206 177 172 173 179 213 189 164 198 157 159 184 196 197 198 173 137 103 90 72 57 47 26 39 27 21 14 7 4 357 355 354 354 353 353 352 349 346 346 345 345 346 347 347 350 349 347 344 343 340 338 340 343 342 339 338 342 340 340 340
182 181 184 184 194 174 186 177 173 180 174 182 177 184 175 202 180 166 162 159 245 144 180 225 160 150 186 187 166 119 79 74 79 63 54 39 49 45 27 24 14 5 2 355 356 353 352 354 354 352 349 346 346 345 346 347 347 350 350 349 347 345 343 340 341 340 340 341 344 342 340 343 341 341
184 178 186 186 185 171 163 168 169 170 177 165 166 167 172 175 163 152 147 154 172 24 170 134 133 144 145 176 130 108 82 61 65 63 52 41 44 37 31 23 14 2 358 351 357 350 352 356 354 353 350 347 348 346 347 348 349 351 351 349 348 345 342 341 341 342 343 342 341 343 343 340 342 342
174 183 195 193 182 158 164 170 163 163 160 151 150 153 149 157 167 147 137 138 121 50 54 108 138 148 135 91 84 92 65 57 49 61 55 42 39 36 34 25 10 359 351 353 356 349 354 355 354 353 352 349 348 347 348 349 351 352 350 349 348 346 343 340 340 341 341 341 342 342 343 345 343 343
170 172 174 171 159 174 162 155 167 165 157 158 149 164 161 168 177 179 111 128 137 159 113 84 75 67 43 102 21 122 103 75 58 52 33 23 33 38 31 29 4 350 346 2 354 351 354 353 353 353 353 351 351 350 350 352 353 351 350 349 348 346 344 338 339 340 340 340 340 342 343 344 344 346
169 165 176 177 161 166 157 163 165 164 165 156 161 167 164 163 166 154 117 126 128 151 163 139 134 115 53 99 129 74 89 82 74 78 47 14 356 27 27 21 0 340 348 10 358 351 354 351 350 352 355 353 352 351 353 354 352 350 349 349 349 348 345 341 339 342 344 342 341 341 343 343 346 347
173 182 181 177 166 163 167 168 165 170 158 158 156 158 171 153 150 137 102 96 127 142 139 185 153 160 120 69 65 87 81 86 67 86 73 10 16 3 8 359 345 328 2 17 3 350 350 348 348 352 355 355 353 354 353 354 352 351 350 350 350 348 346 342 341 343 343 343 344 344 342 344 345 345
179 181 186 175 163 161 161 167 171 171 168 162 152 162 163 150 137 105 99 95 99 132 143 129 82 103 78 87 75 65 109 65 70 36 45 347 359 3 342 329 327 340 19 20 8 349 346 344 346 350 354 354 356 356 356 356 353 351 350 350 350 348 345 342 342 344 346 347 344 342 343 344 345 346
184 184 184 172 173 173 179 181 174 172 171 157 156 156 162 147 130 116 96 94 100 114 128 139 131 76 127 87 67 34 69 98 357 347 352 4 43 15 340 336 325 326 24 7 1 344 337 335 342 347 354 356 358 357 356 355 352 351 350 350 349 347 345 343 343 344 346 346 344 343 343 345 345 346
179 183 175 167 167 169 169 166 174 173 167 167 168 164 158 147 133 124 119 116 112 123 126 94 109 125 79 118 142 83 66 68 95 78 352 333 337 342 340 305 312 329 344 347 353 338 332 334 334 349 355 355 358 357 353 351 351 351 350 349 348 347 345 343 344 345 347 346 344 344 343 344 347 348
151 158 156 161 172 180 182 178 174 169 169 163 156 155 148 146 137 134 133 124 126 131 134 125 148 140 142 97 79 103 122 97 259 114 140 227 295 311 314 271 278 339 2 338 331 332 315 311 321 346 352 352 358 354 350 338 349 348 348 349 348 348 346 344 345 347 348 347 345 344 344 345 347 350
142 147 163 177 178 175 171 171 168 171 162 159 154 159 153 146 140 135 136 138 134 135 138 127 109 141 163 180 158 176 190 199 212 153 114 262 285 295 295 286 128 105 352 313 305 305 310 317 333 342 346 345 353 344 340 326 343 349 348 347 347 348 346 345 346 349 349 348 346 345 345 345 347 351
160 167 177 173 164 160 156 155 157 160 164 179 177 162 158 153 148 150 147 153 159 153 163 176 162 169 201 197 196 199 188 123 111 119 131 212 290 301 280 268 197 102 27 333 316 302 302 328 328 352 345 334 343 334 316 333 348 346 347 346 347 347 346 345 348 350 349 349 346 346 346 346 348 352
173 162 153 153 157 154 156 159 160 165 165 163 150 166 171 169 159 153 155 167 165 169 177 162 169 190 198 204 187 198 147 145 149 145 152 181 223 195 48 299 314 54 27 333 301 297 305 21 358 338 336 331 334 329 324 344 347 347 346 345 346 347 345 346 349 350 350 349 347 347 347 348 351 354
160 159 154 150 159 166 164 162 163 164 166 162 158 164 168 169 166 162 160 160 163 178 163 169 193 180 202 189 178 173 144 158 134 146 157 180 184 187 187 230 241 236 55 345 295 292 287 22 13 339 328 326 317 320 335 344 348 348 346 346 347 347 347 348 350 351 351 349 349 348 348 349 352 355
155 153 154 155 171 176 166 162 168 163 160 160 160 162 159 160 155 137 104 128 168 165 161 171 178 196 178 176 201 180 162 134 131 153 185 191 195 198 201 226 261 291 60 12 299 278 290 14 353 330 306 313 310 322 327 345 348 350 347 346 348 348 349 350 351 352 351 350 349 348 349 350 353 356
163 168 170 173 175 176 174 170 168 167 160 155 151 154 159 158 149 135 126 123 124 160 168 166 187 188 165 187 169 160 147 154 177 173 201 185 195 199 216 220 235 287 325 221 274 309 287 341 353 317 302 316 308 310 321 348 349 352 350 348 347 349 352 352 351 351 351 351 350 349 350 351 355 358
171 180 184 178 177 175 179 179 172 166 162 154 154 152 151 154 155 149 145 147 147 150 155 172 161 152 156 132 132 138 150 138 142 169 183 180 185 159 18 333 287 292 261 231 171 245 274 316 1 289 295 309 303 295 314 340 351 353 352 349 347 347 352 353 351 351 352 351 352 351 350 351 356 360
181 161 164 170 173 182 187 183 174 171 157 152 149 150 149 142 132 123 119 127 126 134 137 136 136 139 142 139 138 143 132 125 135 112 81 65 66 104 318 247 323 260 272 217 116 251 287 275 21 287 297 303 289 299 278 315 348 355 353 350 347 348 353 354 352 352 352 353 352 352 351 351 357 2
160 168 167 162 167 172 188 182 177 165 147 150 153 154 155 148 142 137 130 132 131 130 127 130 133 136 141 148 152 158 159 156 147 133 136 188 151 160 221 269 225 245 247 244 159 159 275 282 216 291 291 292 275 264 299 305 336 350 351 349 348 349 354 354 352 351 353 354 353 354 352 352 359 2
145 160 161 152 156 169 170 176 178 168 158 160 162 157 152 157 161 157 149 136 138 136 136 139 144 148 156 161 168 173 176 178 163 161 190 189 155 196 197 228 212 259 250 240 171 106 228 269 296 292 288 316 285 277 255 310 333 344 335 339 346 349 354 354 351 350 352 355 355 355 355 354 1 360
130 126 150 154 147 156 163 179 181 177 172 168 168 163 157 165 179 178 164 154 145 138 128 126 126 128 141 154 154 193 194 201 186 190 185 148 166 186 202 203 181 332 268 231 185 137 280 59 292 40 336 345 277 270 237 282 326 328 327 322 324 339 353 351 347 349 351 356 357 356 357 357 4 357
147 152 162 170 170 168 174 185 185 181 178 173 167 162 171 170 190 168 164 162 154 153 153 151 147 140 138 151 145 145 164 184 161 186 163 172 178 184 184 189 179 206 227 212 158 121 247 141 264 258 197 138 294 299 300 302 289 301 315 319 322 330 341 340 339 341 348 356 358 357 358 360 7 360
173 178 183 182 186 179 175 181 187 183 184 179 173 179 185 192 148 145 161 161 151 152 153 153 152 146 148 168 162 181 182 172 182 176 176 182 178 171 172 173 199 238 233 217 166 104 221 169 219 273 304 234 261 306 271 286 302 255 291 311 310 318 333 326 327 327 340 347 351 354 360 3 9 12
188 188 181 181 188 187 183 183 186 187 187 180 171 184 173 147 149 159 153 152 154 155 153 156 143 148 160 176 186 193 197 190 192 191 185 185 184 195 179 168 178 199 255 247 189 137 126 287 193 193 232 218 264 264 301 289 264 247 295 300 303 296 306 315 327 329 336 334 336 347 1 5 7 13
186 179 186 185 189 191 190 192 190 189 184 174 174 174 164 153 153 148 154 154 154 160 164 132 163 184 184 188 194 196 197 193 190 192 189 186 185 191 196 200 194 211 222 204 175 166 160 207 213 187 214 247 267 273 263 275 294 309 318 306 313 302 290 311 329 324 330 340 328 344 350 353 2 12
179 181 189 186 191 195 194 194 193 192 183 173 172 173 165 155 146 142 149 161 166 163 165 181 195 199 197 193 198 203 192 180 187 182 178 179 184 188 205 208 222 225 221 227 197 185 188 207 236 228 216 223 251 271 281 274 286 300 308 309 287 270 300 326 327 330 336 339 333 338 342 348 338 358
182 182 173 176 189 194 191 192 193 191 184 171 174 174 165 144 144 156 165 167 160 172 190 198 198 203 201 201 200 163 151 140 131 141 180 183 194 188 214 216 211 217 220 228 204 182 196 202 220 229 227 230 241 251 240 268 281 286 305 315 316 312 314 299 327 342 333 336 340 334 339 332 340 350
165 172 173 175 179 184 183 181 188 185 181 178 176 176 162 148 167 171 169 170 177 193 192 191 200 203 176 177 155 144 142 152 178 175 186 189 212 173 194 201 247 225 225 217 216 209 200 206 213 212 224 239 222 242 238 253 283 267 271 265 272 302 261 325 331 335 351 341 328 319 312 322 327 351
162 161 154 157 166 171 177 179 182 174 157 167 175 178 172 173 177 178 186 188 192 189 184 192 191 144 139 115 129 161 165 178 183 183 187 200 209 182 178 171 259 243 230 210 212 205 203 207 209 189 198 229 238 223 233 221 264 280 278 259 265 273 292 316 324 328 333 336 320 308 313 344 346 342
135 138 144 155 162 158 166 171 170 168 166 168 173 182 177 171 173 176 167 172 221 207 161 132 120 115 128 157 176 167 177 186 181 178 194 196 206 185 154 182 245 232 248 219 228 209 193 199 191 204 199 196 230 258 229 220 240 249 269 267 252 272 280 293 305 308 333 341 341 334 315 318 333 326
114 118 130 147 160 173 174 173 180 177 174 171 173 174 165 157 174 181 184 200 204 179 160 173 168 161 142 165 176 178 183 193 185 180 199 209 186 201 189 218 220 188 208 221 203 209 197 222 219 209 210 225 227 220 224 269 260 226 233 256 269 267 291 296 271 286 334 3 346 332 317 318 303 320
138 156 161 172 170 172 176 181 183 181 187 182 178 182 180 176 184 193 196 205 188 168 190 178 160 149 147 164 166 191 192 190 184 197 200 212 191 192 210 215 231 223 222 228 205 213 220 244 292 301 258 245 245 216 208 220 251 231 216 242 240 265 282 277 304 307 336 230 258 317 332 325 315 321
154 159 169 173 175 179 178 187 187 184 186 195 191 189 187 195 198 199 197 202 182 186 192 185 150 153 171 173 165 183 192 193 198 188 214 208 215 216 214 221 230 214 214 227 225 205 177 196 142 315 319 322 327 292 212 203 215 228 196 233 215 211 263 300 327 331 347 336 136 247 299 301 311 299
177 172 176 177 182 175 184 192 181 184 191 195 199 193 194 208 205 200 211 194 180 183 184 189 186 183 188 184 186 178 190 196 177 190 206 209 215 226 219 228 228 227 208 219 226 203 172 196 146 273 306 310 358 313 324 206 191 177 187 234 214 187 278 304 316 304 342 333 76 157 239 283 295 305
177 181 182 186 183 184 192 185 185 189 193 198 201 204 206 211 208 209 196 150 179 190 196 189 200 196 202 200 201 200 198 197 208 203 210 213 212 213 219 229 223 223 222 229 191 205 172 188 180 155 169 292 283 265 253 336 250 225 179 187 248 248 212 331 358 343 313 233 286 198 205 209 253 291
193 184 192 192 189 191 192 192 189 196 201 202 206 210 216 215 184 169 153 171 192 191 195 201 208 204 205 201 191 206 209 210 210 214 216 206 204 213 213 220 220 213 220 218 193 201 185 182 185 184 180 220 252 259 288 293 14 179 127 124 159 266 207 327 325 297 300 313 213 251 109 251 247 270
188 188 194 197 198 194 198 204 197 206 205 204 208 210 212 205 179 168 181 197 194 197 200 206 210 209 207 205 209 210 211 205 211 220 217 213 210 214 216 213 218 217 194 223 203 195 182 198 198 193 197 201 215 214 190 191 260 259 285 290 264 255 253 202 243 262 246 278 292 291 246 248 275 280
205 202 209 200 208 200 208 199 209 210 210 210 208 206 201 204 195 192 195 199 202 207 205 212 212 210 213 209 211 215 221 218 220 222 219 218 216 214 216 211 212 201 202 213 207 210 199 212 200 200 203 217 228 204 186 231 257 262 274 290 291 265 226 190 219 202 259 230 150 12 307 356 332 327
192 207 224 207 208 203 204 206 203 201 208 207 205 201 200 198 198 203 202 202 203 205 213 215 213 213 216 211 210 207 220 225 223 226 222 220 218 216 211 198 214 196 199 227 215 215 219 212 199 198 180 152 98 73 21 293 263 246 262 282 293 301 277 204 193 197 215 149 138 121 233 264 278 346
193 211 213 209 213 220 204 211 211 206 214 208 208 204 204 200 209 202 200 201 204 211 214 215 211 211 217 213 210 207 217 222 221 221 215 213 219 218 206 202 209 205 200 217 217 221 129 130 151 146 121 127 138 172 232 230 250 267 270 287 303 301 327 310 226 202 190 150 121 112 62 348 26 323
194 202 211 214 214 217 213 214 214 209 219 210 212 206 200 206 203 200 200 202 206 209 215 215 207 208 213 209 206 203 211 223 219 218 216 215 212 211 211 209 210 206 210 223 183 131 145 129 131 142 143 156 202 195 235 242 235 259 276 304 285 308 311 314 318 283 263 222 206 191 172 166 136 237
197 201 217 210 209 218 217 213 216 215 215 216 215 205 203 203 209 211 206 209 203 211 212 210 210 207 211 207 202 208 213 219 216 215 217 215 211 214 212 211 205 202 209 205 186 163 146 163 173 156 159 204 189 199 241 242 257 234 229 231 260 316 296 301 318 307 285 279 269 236 214 208 214 217
203 210 215 218 215 221 223 218 215 217 216 220 215 212 214 213 219 216 215 210 212 210 208 210 211 214 207 200 193 214 220 213 212 220 214 214 213 209 209 201 203 203 206 198 181 200 176 173 186 159 175 200 187 208 227 227 239 245 245 238 263 262 262 281 273 268 271 283 279 259 217 220 229 243